Johnson County (6A4)
Johnson County, TN
Field Elevation: 2240
Lat: 36°25.07N  Long: 81°49.51W
CTAF/Unicom Freq: 122.7000
   
    
Weather Advisories
11/26/2014 17:03 Z
Altimeter 30.01" Hg
Wind 240° @ 0 KT
Gusts --
Visibility 10 SM
Ceiling OVC007
Temperature 2° C (36° F)
Dewpoint 1° C (34° F)
Relative Humidity 93%
Density Altitude --
Condensation Altitude --
  Wind and Runways
Indicated Runway = 24
History
 
 
More Info
All DigiWx sites map
 
Johnson County Airport FBO
 
Airport IQ 5010
(M01) General Dewitt Spain Airport
(3M3) Collegedale Muni
 
about DigiWx
 
FAA Disclaimer: The data displayed is for advisory purposes only and is not to be used for flight planning or operations. For official data, please call (not available) to hear the current automated AWOS voice message.
  METAR 6A4 261703Z AUTO 24000KT 10SM OVC007 02/01 A3001